This is the latest recevied weather packets stored in our database for station/object NO9B. If no packets are shown the sender has not sent any weather packets the latest 10 day(s).
| Time | Temp. | Humidity | Pressure | Rain* | Wind** | Luminosity | Snow |
|---|---|---|---|---|---|---|---|
| 1787611079 | 25° C | 50% | 1019.7 hPa | 0 mm | - | 27 W/m² | - |
| 1787610775 | 25° C | 49% | 1019.7 hPa | 0 mm | - | 33 W/m² | - |
| 1787610470 | 25.56° C | 50% | 1019.7 hPa | 0 mm | - | 46 W/m² | - |
| 1787610169 | 25.56° C | 45% | 1019.9 hPa | 0 mm | - | 34 W/m² | - |
| 1787609869 | 26.11° C | 47% | 1019.6 hPa | 0 mm | - | 61 W/m² | - |
| 1787609563 | 26.11° C | 45% | 1019.6 hPa | 0 mm | - | 51 W/m² | - |
| 1787609263 | 26.11° C | 44% | 1019.5 hPa | 0 mm | - | 40 W/m² | - |
| 1787608963 | 26.67° C | 43% | 1019.6 hPa | 0 mm | - | 44 W/m² | - |
| 1787608658 | 27.78° C | 37% | 1019.5 hPa | 0 mm | - | 77 W/m² | - |
| 1787608352 | 27.78° C | 42% | 1019.7 hPa | 0 mm | - | 257 W/m² | - |
| 1787608050 | 27.22° C | 43% | 1019.5 hPa | 0 mm | - | 250 W/m² | - |
| 1787607746 | 27.22° C | 40% | 1019.7 hPa | 0 mm | - | 240 W/m² | - |
| 1787607443 | 27.22° C | 43% | 1019.4 hPa | 0 mm | - | 235 W/m² | - |
| 1787607139 | 27.22° C | 40% | 1019.5 hPa | 0 mm | - | 281 W/m² | - |
| 1787606839 | 27.22° C | 42% | 1019.4 hPa | 0 mm | - | 332 W/m² | - |
| 1787606538 | 27.22° C | 43% | 1019.5 hPa | 0 mm | - | 352 W/m² | - |
| 1787606237 | 27.22° C | 44% | 1019.3 hPa | 0 mm | - | 367 W/m² | - |
| 1787605937 | 27.22° C | 42% | 1019.4 hPa | 0 mm | - | 380 W/m² | - |
| 1787605636 | 27.22° C | 40% | 1019.3 hPa | 0 mm | - | 398 W/m² | - |
| 1787605332 | 27.22° C | 42% | 1019.5 hPa | 0 mm | - | 409 W/m² | - |
| 1787605027 | 27.22° C | 40% | 1019.4 hPa | 0 mm | - | 411 W/m² | - |
| 1787604726 | 27.22° C | 47% | 1019.5 hPa | 0 mm | - | 422 W/m² | - |
| 1787604422 | 27.22° C | 43% | 1019.4 hPa | 0 mm | - | 444 W/m² | - |
| 1787604122 | 27.22° C | 38% | 1019.4 hPa | 0 mm | - | 466 W/m² | - |
| 1787603821 | 27.78° C | 38% | 1019.6 hPa | 0 mm | - | 492 W/m² | - |
* Rain latest hour (hover to see other rain measurements)
** Current wind speed in m/s (hover to see current wind gust speed)